GW7029 Weather Reports


time (UTC)temp
C
wind
direction
speed
KPH
gust
KPH
rain 1hr
cm
rain 24hr
cm
rain mn
cm
humidity
%
barometer
mb
20260510203603 17 210 0.0 1.6 0.00 0.25 0.00 66 1014.3
20260510202724 18 222 0.0 3.2 0.00 0.28 0.00 62 1014.3
20260510201803 18 258 1.6 4.8 0.00 0.30 0.00 58 1014.0
20260510200924 18 246 1.6 4.8 0.00 0.33 0.00 54 1014.0
20260510200005 20 250 3.2 11.3 0.00 0.41 0.00 54 1013.6
20260510195404 20 231 1.6 11.3 0.00 0.46 0.00 51 1013.6
20260510194505 21 243 1.6 6.4 0.00 0.51 0.00 52 1013.3
20260510193604 21 231 1.6 6.4 0.00 0.56 0.00 47 1013.6
20260510192705 21 232 1.6 6.4 0.00 0.61 0.00 49 1013.6
20260510191825 21 248 3.2 11.3 0.00 0.66 0.00 48 1013.3
20260510190926 21 274 3.2 14.5 0.00 0.71 0.00 48 1013.3
20260510190004 21 335 1.6 16.1 0.00 0.74 0.00 51 1013.3
20260510185405 21 222 1.6 4.8 0.00 0.74 0.00 53 1013.6
20260510184504 21 329 1.6 20.9 0.00 0.74 0.00 57 1013.6
20260510183604 21 311 3.2 12.9 0.00 0.74 0.00 52 1013.6
20260510182704 21 179 1.6 11.3 0.00 0.74 0.00 55 1013.6
20260510181804 21 209 1.6 4.8 0.00 0.74 0.00 57 1014.0
20260510180904 21 247 1.6 4.8 0.00 0.74 0.00 57 1013.6
20260510180005 21 186 1.6 6.4 0.00 0.74 0.00 55 1013.6
20260510175404 21 279 1.6 6.4 0.00 0.74 0.00 56 1013.6
20260510174504 21 273 1.6 9.7 0.00 0.74 0.00 58 1013.6
20260510173604 21 294 1.6 6.4 0.00 0.74 0.00 61 1013.3
20260510172704 20 63 1.6 9.7 0.00 0.74 0.00 59 1013.6
20260510171825 20 285 1.6 14.5 0.00 0.74 0.00 58 1013.6
20260510170904 21 267 1.6 6.4 0.00 0.74 0.00 56 1013.6
20260510170004 21 172 1.6 4.8 0.00 0.74 0.00 61 1013.6
20260510165425 21 123 1.6 14.5 0.00 0.74 0.00 60 1013.6
20260510164504 20 195 3.2 6.4 0.00 0.74 0.00 59 1013.6
20260510163625 20 182 1.6 6.4 0.00 0.74 0.00 65 1014.0
20260510162704 20 277 1.6 6.4 0.00 0.76 0.00 62 1013.6
20260510161826 20 269 1.6 9.7 0.00 0.76 0.00 62 1014.0
20260510160904 20 264 3.2 9.7 0.00 0.76 0.00 61 1014.0
20260510160004 20 228 1.6 6.4 0.00 0.79 0.00 65 1014.0
20260510155404 19 252 1.6 4.8 0.00 0.79 0.00 67 1014.0
20260510154504 20 155 3.2 16.1 0.00 0.79 0.00 65 1014.0
20260510153604 18 213 3.2 9.7 0.00 0.79 0.00 69 1014.0
20260510152725 18 249 1.6 9.7 0.00 0.79 0.00 69 1014.0
20260510151825 18 221 3.2 16.1 0.00 0.79 0.00 70 1014.3
20260510150904 17 201 1.6 9.7 0.00 0.79 0.00 72 1014.3
20260510150004 17 156 1.6 6.4 0.00 0.79 0.00 76 1014.0
20260510145425 17 137 3.2 9.7 0.00 0.79 0.00 77 1014.3
20260510144504 17 107 1.6 9.7 0.00 0.79 0.00 76 1014.0
20260510143625 17 147 1.6 12.9 0.00 0.79 0.00 77 1014.0
20260510142725 16 116 3.2 9.7 0.00 0.79 0.00 80 1014.0
20260510141825 15 230 1.6 4.8 0.00 0.79 0.00 81 1014.0
20260510140926 15 257 1.6 4.8 0.00 0.79 0.00 81 1014.3
20260510140004 14 235 1.6 4.8 0.00 0.79 0.00 84 1014.0
20260510135425 14 183 1.6 6.4 0.00 0.79 0.00 85 1014.3
20260510134504 13 96 1.6 9.7 0.00 0.79 0.00 86 1014.0
20260510133604 13 143 1.6 6.4 0.00 0.79 0.00 88 1014.3
20260510132704 12 136 1.6 6.4 0.00 0.79 0.00 88 1014.0
20260510131804 12 15 0.0 3.2 0.00 0.79 0.00 88 1014.0
20260510130904 12 4 0.0 1.6 0.00 0.79 0.00 88 1014.0
20260510130004 12 55 0.0 3.2 0.00 0.79 0.00 88 1014.0
20260510125404 12 69 0.0 4.8 0.00 0.79 0.00 89 1014.0
20260510124504 12 93 0.0 4.8 0.00 0.79 0.00 89 1013.6
20260510123604 12 116 1.6 3.2 0.00 0.79 0.00 90 1013.6
20260510122725 12 128 1.6 3.2 0.00 0.79 0.00 90 1013.6
20260510121804 12 114 1.6 6.4 0.00 0.79 0.00 92 1013.6
20260510120904 11 73 0.0 3.2 0.00 0.79 0.00 93 1014.0
20260510120025 11 66 0.0 1.6 0.00 0.79 0.00 94 1013.6
20260510115404 10 66 0.0 1.6 0.00 0.79 0.00 94 1014.0
20260510114504 10 66 0.0 1.6 0.00 0.79 0.00 94 1013.6
20260510113625 10 67 0.0 1.6 0.00 0.79 0.00 94 1013.6
20260510112704 10 69 0.0 1.6 0.00 0.79 0.00 94 1013.3
20260510111804 10 71 0.0 1.6 0.00 0.79 0.00 95 1013.3
20260510110904 10 71 0.0 1.6 0.00 0.79 0.00 95 1013.3
20260510110005 10 71 0.0 1.6 0.00 0.79 0.00 95 1013.3
20260510105405 10 71 0.0 1.6 0.00 0.79 0.00 95 1013.3
20260510104504 10 0 0.0 0.0 0.00 0.79 0.00 95 1013.3
20260510103605 10 70 0.0 1.6 0.00 0.79 0.00 95 1012.9
20260510102704 10 70 0.0 1.6 0.00 0.81 0.00 95 1012.9
20260510101804 10 70 0.0 3.2 0.00 0.81 0.00 95 1012.9
20260510100904 10 54 0.0 1.6 0.00 0.81 0.00 95 1012.9
20260510100004 10 54 0.0 1.6 0.00 0.81 0.00 95 1012.6
20260510095404 10 55 0.0 3.2 0.00 0.81 0.00 95 1012.6
20260510094504 10 57 0.0 1.6 0.00 0.81 0.00 95 1012.2
20260510093604 10 71 0.0 3.2 0.00 0.81 0.00 95 1012.2
20260510092704 10 51 0.0 1.6 0.00 0.84 0.00 95 1012.2
20260510091804 10 51 0.0 1.6 0.00 0.84 0.00 94 1012.9
20260510090904 10 50 0.0 1.6 0.00 0.84 0.00 94 1012.9
20260510090025 9 47 0.0 1.6 0.00 0.84 0.00 94 1012.9
20260510085404 10 45 0.0 1.6 0.00 0.86 0.00 94 1012.6
20260510084525 9 47 0.0 1.6 0.00 0.86 0.00 94 1012.6
20260510083604 9 52 0.0 1.6 0.00 0.89 0.00 94 1012.9
20260510082725 9 46 0.0 1.6 0.00 0.91 0.00 94 1012.9
20260510081804 9 0 0.0 0.0 0.00 0.91 0.00 94 1012.9
20260510080904 10 0 0.0 0.0 0.00 0.97 0.00 94 1012.6
20260510080004 10 46 0.0 1.6 0.00 0.97 0.00 94 1012.6
20260510075425 10 46 0.0 1.6 0.00 0.97 0.00 94 1012.9
20260510074504 10 47 0.0 1.6 0.00 0.97 0.00 94 1012.9
20260510073604 10 46 0.0 1.6 0.00 0.97 0.00 94 1012.9
20260510072704 10 84 0.0 1.6 0.00 0.97 0.00 94 1012.6
20260510071825 10 84 0.0 1.6 0.00 0.97 0.00 94 1012.6
20260510070904 10 83 0.0 4.8 0.00 0.97 0.00 94 1012.6
20260510070004 10 79 0.0 1.6 0.00 0.97 0.00 94 1012.2
20260510065403 10 79 0.0 1.6 0.00 0.97 0.00 94 1012.2
20260510064504 10 0 0.0 0.0 0.00 0.97 0.00 94 1012.6
20260510063604 10 0 0.0 0.0 0.00 0.97 0.00 94 1012.9
20260510062704 10 0 0.0 0.0 0.00 0.97 0.00 94 1012.6
20260510061804 10 79 0.0 1.6 0.00 0.97 0.00 94 1012.6
20260510060904 10 82 0.0 1.6 0.00 0.97 0.00 94 1012.6
20260510060004 10 0 0.0 0.0 0.00 0.97 0.00 94 1012.2
20260510055404 10 83 0.0 3.2 0.00 0.97 0.00 94 1012.2
20260510054504 10 0 0.0 0.0 0.00 0.97 0.00 94 1012.2
20260510053604 10 82 0.0 1.6 0.00 0.97 0.00 94 1012.2
20260510052704 10 0 0.0 0.0 0.00 0.97 0.00 94 1012.6
20260510051804 10 82 0.0 1.6 0.00 0.97 0.00 94 1012.6
20260510050904 10 82 0.0 1.6 0.00 0.97 0.00 94 1012.6
20260510050004 10 0 0.0 0.0 0.00 0.97 0.00 94 1012.9
20260510045404 10 82 0.0 1.6 0.00 0.97 0.00 94 1012.6
20260510044504 10 0 0.0 0.0 0.00 0.97 0.00 94 1012.6
20260510043604 10 0 0.0 0.0 0.00 0.97 0.00 94 1012.2
20260510042704 10 0 0.0 0.0 0.00 0.97 0.00 94 1012.6
20260510041804 10 0 0.0 0.0 0.00 0.97 0.00 94 1012.2
20260510040903 10 0 0.0 0.0 0.00 0.97 0.00 94 1012.6
20260510040004 10 0 0.0 0.0 0.00 0.97 0.00 94 1012.6
20260510035404 10 82 0.0 1.6 0.00 0.97 0.97 94 1012.2
20260510034525 10 0 0.0 0.0 0.00 0.97 0.97 94 1012.6
20260510033604 10 82 0.0 1.6 0.00 0.97 0.97 94 1012.6
20260510032703 10 0 0.0 0.0 0.00 0.97 0.97 94 1012.6
20260510031824 10 0 0.0 0.0 0.00 0.97 0.97 94 1012.2
20260510030904 10 0 0.0 0.0 0.00 0.97 0.97 94 1012.6
20260510030004 10 0 0.0 0.0 0.00 0.97 0.97 94 1012.6
20260510025403 10 0 0.0 0.0 0.00 0.97 0.97 94 1012.9
20260510024504 10 82 0.0 1.6 0.00 0.97 0.97 94 1012.6
20260510023624 10 82 0.0 1.6 0.00 0.97 0.97 94 1012.2
20260510022724 10 82 0.0 1.6 0.00 0.97 0.97 94 1012.2
20260510021803 10 82 0.0 1.6 0.00 0.97 0.97 94 1012.2
20260510020903 10 83 0.0 1.6 0.00 0.97 0.97 94 1012.6
20260510020004 10 79 0.0 4.8 0.00 0.97 0.97 94 1012.6
20260510015424 10 71 0.0 4.8 0.00 0.97 0.97 94 1012.6
20260510014503 10 0 0.0 0.0 0.00 0.97 0.97 94 1012.6
20260510013603 10 0 0.0 0.0 0.00 0.97 0.97 94 1012.9
20260510012703 10 41 0.0 1.6 0.00 0.97 0.97 94 1012.6
20260510011803 10 41 0.0 1.6 0.00 0.97 0.97 94 1012.6
20260510010904 10 41 0.0 1.6 0.00 0.97 0.97 94 1012.2
20260510010024 10 54 0.0 4.8 0.00 0.97 0.97 93 1012.2
20260510005403 10 52 0.0 4.8 0.00 0.97 0.97 93 1011.9
20260510004503 10 32 0.0 1.6 0.00 0.97 0.97 92 1012.2
20260510003603 10 0 0.0 0.0 0.00 0.97 0.97 92 1011.9
20260510002704 11 28 0.0 1.6 0.00 0.97 0.97 93 1011.5
20260510001803 11 65 0.0 1.6 0.00 0.97 0.97 93 1011.9
20260510000925 11 117 0.0 4.8 0.00 0.97 0.97 93 1011.5
20260510000003 11 130 1.6 4.8 0.00 0.97 0.97 93 1011.9
20260509235403 11 120 0.0 3.2 0.00 0.97 0.97 93 1011.9
20260509234504 11 133 1.6 6.4 0.00 0.97 0.97 93 1011.9
20260509233604 11 115 1.6 9.7 0.00 0.97 0.97 93 1011.9
20260509232724 11 119 1.6 6.4 0.00 0.97 0.97 93 1011.5
20260509231803 11 120 1.6 6.4 0.00 0.97 0.97 93 1011.5
20260509230924 11 139 1.6 6.4 0.03 0.97 0.97 92 1011.9
20260509230003 11 88 1.6 6.4 0.03 0.97 0.97 92 1011.9
20260509225403 11 102 0.0 4.8 0.08 0.97 0.97 92 1012.2
20260509224503 11 76 0.0 3.2 0.13 0.97 0.97 92 1012.2
20260509223603 11 53 0.0 1.6 0.15 0.97 0.97 91 1012.2
20260509222703 11 54 0.0 1.6 0.18 0.97 0.97 91 1012.2
20260509221803 11 52 0.0 1.6 0.20 0.97 0.97 90 1012.6
20260509220903 11 51 0.0 1.6 0.18 0.94 0.94 90 1012.2
20260509220003 11 48 0.0 4.8 0.20 0.94 0.94 90 1012.2
20260509215403 11 48 0.0 4.8 0.15 0.89 0.89 90 1012.6
20260509214503 11 358 0.0 1.6 0.10 0.84 0.84 90 1012.6
20260509213603 11 0 0.0 0.0 0.10 0.81 0.81 90 1012.6
20260509212724 11 0 0.0 0.0 0.10 0.79 0.79 90 1012.2
20260509211803 11 343 0.0 1.6 0.10 0.76 0.76 90 1012.6
20260509210924 11 0 0.0 0.0 0.13 0.76 0.76 90 1012.2
20260509210024 11 0 0.0 0.0 0.18 0.74 0.74 90 1012.2
20260509205403 11 342 0.0 1.6 0.23 0.74 0.74 91 1012.2
20260509204503 11 0 0.0 0.0 0.28 0.74 0.74 91 1012.6